Time,TemperatureF,DewpointF,PressureIn,WindDirection,WindDirectionDegrees,WindSpeedMPH,WindSpeedGustMPH,Humidity,HourlyPrecipIn,Conditions,Clouds,dailyrainin,SoftwareType,DateUTC
2013-03-21 00:04:00,53.1,42.8,30.06,NE,45,0.0,1.0,68,0.00,,,0.00,meteohub,2013-03-21 05:04:00,
2013-03-21 00:09:00,53.2,43.3,30.06,NE,45,1.0,1.0,69,0.00,,,0.00,meteohub,2013-03-21 05:09:00,
2013-03-21 00:14:00,53.4,43.5,30.06,NE,45,2.0,2.0,69,0.00,,,0.00,meteohub,2013-03-21 05:14:00,
2013-03-21 00:19:00,53.6,42.4,30.06,NE,45,0.0,2.0,66,0.00,,,0.00,meteohub,2013-03-21 05:19:00,
2013-03-21 00:24:00,53.6,42.1,30.06,NE,45,1.0,2.0,65,0.00,,,0.00,meteohub,2013-03-21 05:24:00,
2013-03-21 00:29:00,53.8,42.6,30.06,NE,45,0.0,2.0,66,0.00,,,0.00,meteohub,2013-03-21 05:29:00,
2013-03-21 00:34:00,53.6,43.0,30.06,NE,45,1.0,2.0,67,0.00,,,0.00,meteohub,2013-03-21 05:34:00,
2013-03-21 00:39:00,53.4,43.5,30.06,NE,45,1.0,2.0,69,0.00,,,0.00,meteohub,2013-03-21 05:39:00,
2013-03-21 00:44:00,53.2,43.3,30.05,NE,45,0.0,2.0,69,0.00,,,0.00,meteohub,2013-03-21 05:44:00,
2013-03-21 00:49:00,52.9,42.6,30.05,NE,45,0.0,2.0,68,0.00,,,0.00,meteohub,2013-03-21 05:49:00,
2013-03-21 00:54:00,52.7,42.8,30.05,NE,45,0.0,2.0,69,0.00,,,0.00,meteohub,2013-03-21 05:54:00,
2013-03-21 00:59:00,52.5,43.0,30.04,NE,45,2.0,2.0,70,0.00,,,0.00,meteohub,2013-03-21 05:59:00,
2013-03-21 01:04:00,52.5,43.0,30.04,NE,45,2.0,2.0,70,0.00,,,0.00,meteohub,2013-03-21 06:04:00,
2013-03-21 01:09:00,52.3,43.5,30.04,East,90,1.0,2.0,72,0.00,,,0.00,meteohub,2013-03-21 06:09:00,
2013-03-21 01:14:00,52.5,43.0,30.04,North,0,2.0,2.0,70,0.00,,,0.00,meteohub,2013-03-21 06:14:00,
2013-03-21 01:19:00,53.2,43.0,30.04,East,90,1.0,2.0,68,0.00,,,0.00,meteohub,2013-03-21 06:19:00,
2013-03-21 01:24:00,53.2,43.0,30.03,NE,45,1.0,2.0,68,0.00,,,0.00,meteohub,2013-03-21 06:24:00,
2013-03-21 01:30:00,53.4,42.3,30.03,West,270,1.0,2.0,66,0.00,,,0.00,meteohub,2013-03-21 06:30:00,
2013-03-21 01:35:00,53.6,42.4,30.03,West,270,1.0,2.0,66,0.00,,,0.00,meteohub,2013-03-21 06:35:00,
2013-03-21 01:40:00,53.4,43.5,30.02,NE,45,1.0,2.0,69,0.00,,,0.00,meteohub,2013-03-21 06:40:00,
2013-03-21 01:45:00,53.4,42.3,30.02,NE,45,1.0,2.0,66,0.00,,,0.00,meteohub,2013-03-21 06:45:00,
2013-03-21 01:50:00,53.6,41.7,30.02,NE,45,0.0,2.0,64,0.00,,,0.00,meteohub,2013-03-21 06:50:00,
2013-03-21 01:55:00,54.0,42.8,30.03,NE,45,0.0,2.0,66,0.00,,,0.00,meteohub,2013-03-21 06:55:00,
2013-03-21 02:00:00,54.0,43.3,30.03,NE,45,1.0,2.0,67,0.00,,,0.00,meteohub,2013-03-21 07:00:00,
2013-03-21 02:05:00,54.1,42.6,30.02,NE,45,1.0,1.0,65,0.00,,,0.00,meteohub,2013-03-21 07:05:00,
2013-03-21 02:10:00,54.1,42.3,30.02,NE,45,1.0,2.0,64,0.00,,,0.00,meteohub,2013-03-21 07:10:00,
2013-03-21 02:15:00,54.0,42.1,30.01,NE,45,2.0,2.0,64,0.00,,,0.00,meteohub,2013-03-21 07:15:00,
2013-03-21 02:20:00,53.6,41.7,30.01,NE,45,0.0,2.0,64,0.00,,,0.00,meteohub,2013-03-21 07:20:00,
2013-03-21 02:25:00,53.2,42.6,30.01,NE,45,1.0,2.0,67,0.00,,,0.00,meteohub,2013-03-21 07:25:00,
2013-03-21 02:30:00,53.1,42.4,30.01,NNE,23,1.0,2.0,67,0.00,,,0.00,meteohub,2013-03-21 07:30:00,
2013-03-21 02:35:00,53.1,42.1,30.01,NE,45,0.0,1.0,66,0.00,,,0.00,meteohub,2013-03-21 07:35:00,
2013-03-21 02:40:00,53.1,42.4,30.01,NE,45,0.0,1.0,67,0.00,,,0.00,meteohub,2013-03-21 07:40:00,
2013-03-21 02:45:00,52.5,42.3,30.01,NE,45,0.0,1.0,68,0.00,,,0.00,meteohub,2013-03-21 07:45:00,
2013-03-21 02:50:00,52.2,42.6,30.01,NE,45,0.0,1.0,70,0.00,,,0.00,meteohub,2013-03-21 07:50:00,
2013-03-21 02:55:00,52.0,42.8,30.01,West,270,0.0,0.0,71,0.00,,,0.00,meteohub,2013-03-21 07:55:00,
2013-03-21 03:01:00,51.8,43.0,30.01,West,270,2.0,2.0,72,0.00,,,0.00,meteohub,2013-03-21 08:01:00,
2013-03-21 03:06:00,51.8,43.0,30.01,West,270,2.0,2.0,72,0.00,,,0.00,meteohub,2013-03-21 08:06:00,
2013-03-21 03:11:00,52.0,43.2,30.01,West,270,0.0,2.0,72,0.00,,,0.00,meteohub,2013-03-21 08:11:00,
2013-03-21 03:16:00,52.2,43.3,30.01,West,270,0.0,2.0,72,0.00,,,0.00,meteohub,2013-03-21 08:16:00,
2013-03-21 03:21:00,52.2,43.7,30.00,West,270,0.0,2.0,73,0.00,,,0.00,meteohub,2013-03-21 08:21:00,
2013-03-21 03:26:00,52.3,43.9,30.00,SE,135,0.0,0.0,73,0.00,,,0.00,meteohub,2013-03-21 08:26:00,
2013-03-21 03:32:00,52.3,44.2,29.99,NE,45,1.0,2.0,74,0.00,,,0.00,meteohub,2013-03-21 08:32:00,
2013-03-21 03:37:00,52.3,44.2,29.99,NE,45,0.0,2.0,74,0.00,,,0.00,meteohub,2013-03-21 08:37:00,
2013-03-21 03:42:00,52.2,44.1,29.99,NE,45,0.0,2.0,74,0.00,,,0.00,meteohub,2013-03-21 08:42:00,
2013-03-21 03:47:00,52.0,43.5,29.98,East,90,0.0,1.0,73,0.00,,,0.00,meteohub,2013-03-21 08:47:00,
2013-03-21 03:52:00,52.2,43.7,29.99,East,90,0.0,1.0,73,0.00,,,0.00,meteohub,2013-03-21 08:52:00,
2013-03-21 03:57:00,52.0,43.5,29.98,West,270,0.0,1.0,73,0.00,,,0.00,meteohub,2013-03-21 08:57:00,
2013-03-21 04:02:00,51.8,43.7,29.98,West,270,0.0,1.0,74,0.00,,,0.00,meteohub,2013-03-21 09:02:00,
2013-03-21 04:07:00,51.6,43.9,29.98,West,270,0.0,0.0,75,0.00,,,0.00,meteohub,2013-03-21 09:07:00,
2013-03-21 04:12:00,51.4,43.7,29.97,West,270,0.0,2.0,75,0.00,,,0.00,meteohub,2013-03-21 09:12:00,
2013-03-21 04:17:00,51.1,43.5,29.98,West,270,0.0,2.0,75,0.00,,,0.00,meteohub,2013-03-21 09:17:00,
2013-03-21 04:22:00,51.1,43.5,29.97,NE,45,0.0,2.0,75,0.00,,,0.00,meteohub,2013-03-21 09:22:00,
2013-03-21 04:27:00,50.9,43.5,29.97,SE,135,0.0,1.0,76,0.00,,,0.00,meteohub,2013-03-21 09:27:00,
2013-03-21 04:32:00,50.7,43.5,29.96,North,0,2.0,2.0,76,0.00,,,0.00,meteohub,2013-03-21 09:32:00,
2013-03-21 04:37:00,50.5,43.3,29.96,North,0,0.0,2.0,76,0.00,,,0.00,meteohub,2013-03-21 09:37:00,
2013-03-21 04:42:00,50.5,43.3,29.96,East,90,0.0,2.0,76,0.00,,,0.00,meteohub,2013-03-21 09:42:00,
2013-03-21 04:47:00,50.7,43.7,29.96,SW,225,1.0,2.0,77,0.00,,,0.00,meteohub,2013-03-21 09:47:00,
2013-03-21 04:52:00,50.7,43.7,29.95,North,0,0.0,2.0,77,0.00,,,0.00,meteohub,2013-03-21 09:52:00,
2013-03-21 04:57:00,50.9,43.9,29.95,NE,45,3.0,3.0,77,0.00,,,0.00,meteohub,2013-03-21 09:57:00,
2013-03-21 05:03:00,51.4,44.1,29.95,NE,45,2.0,3.0,76,0.00,,,0.00,meteohub,2013-03-21 10:03:00,
2013-03-21 05:08:00,53.4,43.5,29.95,NE,45,2.0,3.0,69,0.00,,,0.00,meteohub,2013-03-21 10:08:00,
2013-03-21 05:13:00,54.0,43.3,29.94,NE,45,3.0,3.0,67,0.00,,,0.00,meteohub,2013-03-21 10:13:00,
2013-03-21 05:18:00,54.3,42.8,29.94,NE,45,3.0,3.0,65,0.00,,,0.00,meteohub,2013-03-21 10:18:00,
2013-03-21 05:23:00,54.3,42.8,29.94,East,90,3.0,4.0,65,0.00,,,0.00,meteohub,2013-03-21 10:23:00,
2013-03-21 05:28:00,54.5,42.6,29.94,ENE,68,5.0,5.0,64,0.00,,,0.00,meteohub,2013-03-21 10:28:00,
2013-03-21 05:33:00,54.9,42.4,29.94,NNW,338,3.0,5.0,63,0.00,,,0.00,meteohub,2013-03-21 10:33:00,
2013-03-21 05:38:00,55.2,42.4,29.94,NE,45,3.0,5.0,62,0.00,,,0.00,meteohub,2013-03-21 10:38:00,
2013-03-21 05:43:00,55.2,42.4,29.94,NE,45,2.0,6.0,62,0.00,,,0.00,meteohub,2013-03-21 10:43:00,
2013-03-21 05:48:00,55.2,42.1,29.94,North,0,3.0,6.0,61,0.00,,,0.00,meteohub,2013-03-21 10:48:00,
2013-03-21 05:53:00,55.2,42.1,29.93,North,0,2.0,6.0,61,0.00,,,0.00,meteohub,2013-03-21 10:53:00,
2013-03-21 05:58:00,55.2,42.1,29.94,NE,45,2.0,7.0,61,0.00,,,0.00,meteohub,2013-03-21 10:58:00,
2013-03-21 06:03:00,54.9,41.7,29.94,NE,45,2.0,7.0,61,0.00,,,0.00,meteohub,2013-03-21 11:03:00,
2013-03-21 06:08:00,55.0,41.4,29.94,NE,45,2.0,7.0,60,0.00,,,0.00,meteohub,2013-03-21 11:08:00,
2013-03-21 06:13:00,54.9,41.2,29.93,East,90,3.0,4.0,60,0.00,,,0.00,meteohub,2013-03-21 11:13:00,
2013-03-21 06:18:00,54.9,40.8,29.93,East,90,6.0,6.0,59,0.00,,,0.00,meteohub,2013-03-21 11:18:00,
2013-03-21 06:23:00,55.2,40.6,29.93,NE,45,6.0,6.0,58,0.00,,,0.00,meteohub,2013-03-21 11:23:00,
2013-03-21 06:28:00,55.4,40.5,29.92,NE,45,3.0,6.0,57,0.00,,,0.00,meteohub,2013-03-21 11:28:00,
2013-03-21 06:33:00,55.6,40.1,29.92,NE,45,8.0,8.0,56,0.00,,,0.00,meteohub,2013-03-21 11:33:00,
2013-03-21 06:39:00,55.8,40.3,29.93,NE,45,8.0,9.0,56,0.00,,,0.00,meteohub,2013-03-21 11:39:00,
2013-03-21 06:44:00,55.9,40.5,29.92,East,90,6.0,9.0,56,0.00,,,0.00,meteohub,2013-03-21 11:44:00,
2013-03-21 06:49:00,55.9,41.0,29.92,NE,45,7.0,8.0,57,0.00,,,0.00,meteohub,2013-03-21 11:49:00,
2013-03-21 06:54:00,56.1,41.2,29.92,ENE,68,8.0,8.0,57,0.00,,,0.00,meteohub,2013-03-21 11:54:00,
2013-03-21 06:59:00,56.5,41.4,29.92,ENE,68,7.0,8.0,57,0.00,,,0.00,meteohub,2013-03-21 11:59:00,
2013-03-21 07:04:00,56.7,41.5,29.92,NE,45,4.0,10.0,57,0.00,,,0.00,meteohub,2013-03-21 12:04:00,
2013-03-21 07:09:00,57.0,42.4,29.92,East,90,9.0,10.0,58,0.00,,,0.00,meteohub,2013-03-21 12:09:00,
2013-03-21 07:14:00,57.2,42.6,29.92,NE,45,7.0,12.0,58,0.00,,,0.00,meteohub,2013-03-21 12:14:00,
2013-03-21 07:19:00,57.2,43.0,29.92,NE,45,6.0,12.0,59,0.00,,,0.00,meteohub,2013-03-21 12:19:00,
2013-03-21 07:24:00,57.0,44.1,29.92,East,90,8.0,12.0,62,0.00,,,0.00,meteohub,2013-03-21 12:24:00,
2013-03-21 07:29:00,57.0,45.0,29.91,NE,45,6.0,10.0,64,0.00,,,0.00,meteohub,2013-03-21 12:29:00,
2013-03-21 07:34:00,56.8,45.1,29.92,ENE,68,6.0,10.0,65,0.00,,,0.00,meteohub,2013-03-21 12:34:00,
2013-03-21 07:39:00,56.8,45.7,29.92,NE,45,8.0,10.0,66,0.00,,,0.00,meteohub,2013-03-21 12:39:00,
2013-03-21 07:44:00,56.8,46.0,29.92,NE,45,7.0,8.0,67,0.00,,,0.00,meteohub,2013-03-21 12:44:00,
2013-03-21 07:49:00,56.8,46.4,29.92,NE,45,6.0,8.0,68,0.00,,,0.00,meteohub,2013-03-21 12:49:00,
2013-03-21 07:54:00,57.2,47.1,29.92,NE,45,5.0,8.0,69,0.00,,,0.00,meteohub,2013-03-21 12:54:00,
2013-03-21 07:59:00,57.4,47.7,29.92,NNE,23,6.0,9.0,70,0.00,,,0.00,meteohub,2013-03-21 12:59:00,
2013-03-21 08:05:00,57.4,48.0,29.92,ENE,68,5.0,10.0,71,0.00,,,0.00,meteohub,2013-03-21 13:05:00,
2013-03-21 08:10:00,57.4,49.1,29.91,ENE,68,8.0,10.0,74,0.00,,,0.00,meteohub,2013-03-21 13:10:00,
2013-03-21 08:15:00,57.7,49.8,29.92,ENE,68,8.0,10.0,75,0.00,,,0.00,meteohub,2013-03-21 13:15:00,
2013-03-21 08:20:00,58.1,50.2,29.92,East,90,10.0,10.0,75,0.00,,,0.00,meteohub,2013-03-21 13:20:00,
2013-03-21 08:25:00,58.5,50.5,29.92,NE,45,6.0,8.0,75,0.00,,,0.00,meteohub,2013-03-21 13:25:00,
2013-03-21 08:30:00,58.8,51.3,29.92,ENE,68,6.0,10.0,76,0.00,,,0.00,meteohub,2013-03-21 13:30:00,
2013-03-21 08:35:00,59.2,51.3,29.92,East,90,8.0,14.0,75,0.00,,,0.00,meteohub,2013-03-21 13:35:00,
2013-03-21 08:40:00,59.5,51.6,29.92,East,90,8.0,14.0,75,0.00,,,0.00,meteohub,2013-03-21 13:40:00,
2013-03-21 08:45:00,59.7,51.8,29.92,East,90,11.0,15.0,75,0.00,,,0.00,meteohub,2013-03-21 13:45:00,
2013-03-21 08:50:00,59.7,51.8,29.92,SE,135,9.0,15.0,75,0.00,,,0.00,meteohub,2013-03-21 13:50:00,
2013-03-21 08:55:00,59.9,52.0,29.92,East,90,13.0,15.0,75,0.00,,,0.00,meteohub,2013-03-21 13:55:00,
2013-03-21 09:00:00,60.3,52.3,29.91,ENE,68,10.0,15.0,75,0.00,,,0.00,meteohub,2013-03-21 14:00:00,
2013-03-21 09:05:00,60.3,52.3,29.91,ENE,68,10.0,15.0,75,0.00,,,0.00,meteohub,2013-03-21 14:05:00,
2013-03-21 09:10:00,61.3,52.7,29.91,East,90,6.0,13.0,73,0.00,,,0.00,meteohub,2013-03-21 14:10:00,
2013-03-21 09:15:00,61.7,52.5,29.91,SE,135,6.0,14.0,72,0.00,,,0.00,meteohub,2013-03-21 14:15:00,
2013-03-21 09:20:00,63.0,52.7,29.90,East,90,12.0,14.0,69,0.00,,,0.00,meteohub,2013-03-21 14:20:00,
2013-03-21 09:25:00,63.5,52.3,29.91,East,90,13.0,13.0,67,0.00,,,0.00,meteohub,2013-03-21 14:25:00,
2013-03-21 09:30:00,63.5,52.3,29.91,NE,45,9.0,14.0,67,0.00,,,0.00,meteohub,2013-03-21 14:30:00,
2013-03-21 09:36:00,63.7,52.2,29.91,East,90,15.0,18.0,66,0.00,,,0.00,meteohub,2013-03-21 14:36:00,
2013-03-21 09:41:00,64.0,52.9,29.91,East,90,21.0,21.0,67,0.00,,,0.00,meteohub,2013-03-21 14:41:00,
2013-03-21 09:46:00,64.0,53.6,29.91,East,90,17.0,21.0,69,0.00,,,0.00,meteohub,2013-03-21 14:46:00,
2013-03-21 09:51:00,64.6,53.8,29.91,East,90,17.0,21.0,68,0.00,,,0.00,meteohub,2013-03-21 14:51:00,
2013-03-21 09:56:00,64.0,53.2,29.91,East,90,15.0,23.0,68,0.00,,,0.00,meteohub,2013-03-21 14:56:00,
2013-03-21 10:02:00,63.7,53.2,29.91,East,90,10.0,23.0,69,0.00,,,0.00,meteohub,2013-03-21 15:02:00,
2013-03-21 10:07:00,64.0,53.2,29.91,NE,45,17.0,23.0,68,0.00,,,0.00,meteohub,2013-03-21 15:07:00,
2013-03-21 10:12:00,63.9,53.4,29.91,NE,45,13.0,20.0,69,0.00,,,0.00,meteohub,2013-03-21 15:12:00,
2013-03-21 10:17:00,63.3,53.4,29.91,East,90,11.0,20.0,70,0.00,,,0.00,meteohub,2013-03-21 15:17:00,
2013-03-21 10:22:00,63.3,53.8,29.90,East,90,16.0,20.0,71,0.00,,,0.00,meteohub,2013-03-21 15:22:00,
2013-03-21 10:27:00,63.7,54.1,29.90,NNE,23,13.0,19.0,71,0.00,,,0.00,meteohub,2013-03-21 15:27:00,
2013-03-21 10:32:00,63.9,54.0,29.90,ESE,113,11.0,24.0,70,0.00,,,0.00,meteohub,2013-03-21 15:32:00,
2013-03-21 10:37:00,64.4,54.0,29.90,East,90,15.0,24.0,69,0.00,,,0.00,meteohub,2013-03-21 15:37:00,
2013-03-21 10:42:00,64.4,54.0,29.89,NE,45,8.0,24.0,69,0.00,,,0.00,meteohub,2013-03-21 15:42:00,
2013-03-21 10:47:00,64.9,54.5,29.88,East,90,10.0,15.0,69,0.00,,,0.00,meteohub,2013-03-21 15:47:00,
2013-03-21 10:52:00,66.4,55.0,29.88,NE,45,11.0,17.0,67,0.00,,,0.00,meteohub,2013-03-21 15:52:00,
2013-03-21 10:57:00,65.8,54.5,29.89,East,90,14.0,17.0,67,0.00,,,0.00,meteohub,2013-03-21 15:57:00,
2013-03-21 11:02:00,66.2,54.9,29.89,East,90,15.0,17.0,67,0.00,,,0.00,meteohub,2013-03-21 16:02:00,
2013-03-21 11:07:00,66.6,54.9,29.88,SE,135,17.0,17.0,66,0.00,,,0.00,meteohub,2013-03-21 16:07:00,
2013-03-21 11:12:00,66.9,55.2,29.88,ENE,68,16.0,19.0,66,0.00,,,0.00,meteohub,2013-03-21 16:12:00,
2013-03-21 11:17:00,66.7,55.0,29.88,NE,45,14.0,19.0,66,0.00,,,0.00,meteohub,2013-03-21 16:17:00,
2013-03-21 11:23:00,66.6,54.9,29.88,East,90,14.0,21.0,66,0.00,,,0.00,meteohub,2013-03-21 16:23:00,
2013-03-21 11:28:00,66.4,55.0,29.87,NE,45,19.0,21.0,67,0.00,,,0.00,meteohub,2013-03-21 16:28:00,
2013-03-21 11:33:00,65.8,55.4,29.88,East,90,19.0,21.0,69,0.00,,,0.00,meteohub,2013-03-21 16:33:00,
2013-03-21 11:38:00,65.8,55.4,29.87,East,90,15.0,19.0,69,0.00,,,0.00,meteohub,2013-03-21 16:38:00,
2013-03-21 11:43:00,65.8,55.8,29.87,North,0,8.0,19.0,70,0.00,,,0.00,meteohub,2013-03-21 16:43:00,
2013-03-21 11:48:00,65.8,55.8,29.87,NE,45,11.0,19.0,70,0.00,,,0.00,meteohub,2013-03-21 16:48:00,
2013-03-21 11:53:00,65.8,55.8,29.87,East,90,15.0,16.0,70,0.00,,,0.00,meteohub,2013-03-21 16:53:00,
2013-03-21 11:58:00,66.2,55.8,29.86,East,90,10.0,16.0,69,0.00,,,0.00,meteohub,2013-03-21 16:58:00,
2013-03-21 12:03:00,67.1,56.1,29.86,NE,45,10.0,16.0,68,0.00,,,0.00,meteohub,2013-03-21 17:03:00,
2013-03-21 12:08:00,68.0,55.8,29.86,East,90,21.0,21.0,65,0.00,,,0.00,meteohub,2013-03-21 17:08:00,
2013-03-21 12:13:00,68.5,56.3,29.85,SE,135,7.0,17.0,65,0.00,,,0.00,meteohub,2013-03-21 17:13:00,
2013-03-21 12:18:00,68.9,56.3,29.85,NE,45,11.0,21.0,64,0.00,,,0.00,meteohub,2013-03-21 17:18:00,
2013-03-21 12:23:00,68.9,55.8,29.84,NE,45,11.0,21.0,63,0.00,,,0.00,meteohub,2013-03-21 17:23:00,
2013-03-21 12:29:00,68.7,56.1,29.84,East,90,13.0,20.0,64,0.00,,,0.00,meteohub,2013-03-21 17:29:00,
2013-03-21 12:34:00,69.1,55.9,29.83,East,90,17.0,21.0,63,0.00,,,0.00,meteohub,2013-03-21 17:34:00,
2013-03-21 12:39:00,70.3,56.7,29.83,East,90,15.0,21.0,62,0.00,,,0.00,meteohub,2013-03-21 17:39:00,
2013-03-21 12:44:00,71.6,56.5,29.83,NE,45,12.0,21.0,59,0.00,,,0.00,meteohub,2013-03-21 17:44:00,
2013-03-21 12:49:00,72.5,55.4,29.83,North,0,15.0,19.0,55,0.00,,,0.00,meteohub,2013-03-21 17:49:00,
2013-03-21 12:54:00,71.6,55.6,29.83,East,90,16.0,19.0,57,0.00,,,0.00,meteohub,2013-03-21 17:54:00,
2013-03-21 12:59:00,71.1,55.6,29.82,North,0,19.0,21.0,58,0.00,,,0.00,meteohub,2013-03-21 17:59:00,
2013-03-21 13:04:00,70.5,55.6,29.82,East,90,12.0,21.0,59,0.00,,,0.00,meteohub,2013-03-21 18:04:00,
2013-03-21 13:09:00,70.3,55.4,29.82,East,90,8.0,19.0,59,0.00,,,0.00,meteohub,2013-03-21 18:09:00,
2013-03-21 13:14:00,70.7,55.6,29.81,North,0,8.0,19.0,59,0.00,,,0.00,meteohub,2013-03-21 18:14:00,
2013-03-21 13:19:00,71.1,55.6,29.81,ENE,68,5.0,17.0,58,0.00,,,0.00,meteohub,2013-03-21 18:19:00,
2013-03-21 13:24:00,71.8,55.2,29.80,East,90,12.0,17.0,56,0.00,,,0.00,meteohub,2013-03-21 18:24:00,
2013-03-21 13:29:00,72.1,55.0,29.80,NE,45,16.0,17.0,55,0.00,,,0.00,meteohub,2013-03-21 18:29:00,
2013-03-21 13:35:00,72.9,55.2,29.79,NE,45,17.0,17.0,54,0.00,,,0.00,meteohub,2013-03-21 18:35:00,
2013-03-21 13:40:00,74.5,56.3,29.79,NE,45,20.0,20.0,53,0.00,,,0.00,meteohub,2013-03-21 18:40:00,
2013-03-21 13:45:00,73.6,55.4,29.79,NE,45,20.0,20.0,53,0.00,,,0.00,meteohub,2013-03-21 18:45:00,
2013-03-21 13:50:00,72.7,55.0,29.79,SE,135,11.0,20.0,54,0.00,,,0.00,meteohub,2013-03-21 18:50:00,
2013-03-21 13:55:00,73.0,55.4,29.78,NE,45,18.0,21.0,54,0.00,,,0.00,meteohub,2013-03-21 18:55:00,
2013-03-21 14:00:00,73.0,55.4,29.78,East,90,17.0,21.0,54,0.00,,,0.00,meteohub,2013-03-21 19:00:00,
2013-03-21 14:05:00,73.2,55.6,29.77,East,90,11.0,21.0,54,0.00,,,0.00,meteohub,2013-03-21 19:05:00,
2013-03-21 14:10:00,73.4,55.8,29.77,South,180,13.0,18.0,54,0.00,,,0.00,meteohub,2013-03-21 19:10:00,
2013-03-21 14:15:00,73.4,55.8,29.77,NE,45,10.0,18.0,54,0.00,,,0.00,meteohub,2013-03-21 19:15:00,
2013-03-21 14:20:00,72.9,55.2,29.76,NE,45,15.0,23.0,54,0.00,,,0.00,meteohub,2013-03-21 19:20:00,
2013-03-21 14:25:00,72.9,55.2,29.76,ESE,113,10.0,23.0,54,0.00,,,0.00,meteohub,2013-03-21 19:25:00,
2013-03-21 14:30:00,73.0,55.4,29.75,ENE,68,16.0,23.0,54,0.00,,,0.00,meteohub,2013-03-21 19:30:00,
2013-03-21 14:35:00,73.8,56.1,29.75,NNE,23,13.0,18.0,54,0.00,,,0.00,meteohub,2013-03-21 19:35:00,
2013-03-21 14:40:00,74.1,55.9,29.75,East,90,15.0,18.0,53,0.00,,,0.00,meteohub,2013-03-21 19:40:00,
2013-03-21 14:45:00,74.1,55.9,29.75,ENE,68,11.0,17.0,53,0.00,,,0.00,meteohub,2013-03-21 19:45:00,
2013-03-21 14:50:00,74.7,56.8,29.75,East,90,13.0,19.0,54,0.00,,,0.00,meteohub,2013-03-21 19:50:00,
2013-03-21 14:55:00,74.8,56.5,29.74,NE,45,15.0,21.0,53,0.00,,,0.00,meteohub,2013-03-21 19:55:00,
2013-03-21 15:01:00,74.3,56.1,29.73,NE,45,12.0,21.0,53,0.00,,,0.00,meteohub,2013-03-21 20:01:00,
2013-03-21 15:06:00,74.3,56.7,29.73,NE,45,13.0,21.0,54,0.00,,,0.00,meteohub,2013-03-21 20:06:00,
2013-03-21 15:11:00,75.4,57.0,29.73,NE,45,14.0,21.0,53,0.00,,,0.00,meteohub,2013-03-21 20:11:00,
2013-03-21 15:16:00,77.0,56.3,29.72,NE,45,12.0,21.0,49,0.00,,,0.00,meteohub,2013-03-21 20:16:00,
2013-03-21 15:21:00,76.5,56.5,29.71,NE,45,22.0,22.0,50,0.00,,,0.00,meteohub,2013-03-21 20:21:00,
2013-03-21 15:26:00,77.5,56.8,29.71,South,180,10.0,22.0,49,0.00,,,0.00,meteohub,2013-03-21 20:26:00,
2013-03-21 15:32:00,78.8,56.3,29.71,NE,45,12.0,22.0,46,0.00,,,0.00,meteohub,2013-03-21 20:32:00,
2013-03-21 15:37:00,79.5,56.3,29.70,SE,135,10.0,22.0,45,0.00,,,0.00,meteohub,2013-03-21 20:37:00,
2013-03-21 15:42:00,78.3,56.3,29.71,SE,135,17.0,19.0,47,0.00,,,0.00,meteohub,2013-03-21 20:42:00,
2013-03-21 15:47:00,77.7,56.5,29.70,East,90,14.0,21.0,48,0.00,,,0.00,meteohub,2013-03-21 20:47:00,
2013-03-21 15:52:00,75.9,56.5,29.70,NE,45,17.0,21.0,51,0.00,,,0.00,meteohub,2013-03-21 20:52:00,
2013-03-21 15:57:00,76.3,57.4,29.69,SE,135,14.0,19.0,52,0.00,,,0.00,meteohub,2013-03-21 20:57:00,
2013-03-21 16:02:00,78.3,57.6,29.69,NE,45,21.0,22.0,49,0.00,,,0.00,meteohub,2013-03-21 21:02:00,
2013-03-21 16:07:00,79.5,57.6,29.69,SE,135,21.0,22.0,47,0.00,,,0.00,meteohub,2013-03-21 21:07:00,
2013-03-21 16:12:00,78.3,57.0,29.69,East,90,17.0,22.0,48,0.00,,,0.00,meteohub,2013-03-21 21:12:00,
2013-03-21 16:17:00,75.9,57.0,29.69,NE,45,14.0,21.0,52,0.00,,,0.00,meteohub,2013-03-21 21:17:00,
2013-03-21 16:22:00,75.0,57.7,29.68,NE,45,11.0,21.0,55,0.00,,,0.00,meteohub,2013-03-21 21:22:00,
2013-03-21 16:27:00,77.2,58.3,29.68,SE,135,15.0,20.0,52,0.00,,,0.00,meteohub,2013-03-21 21:27:00,
2013-03-21 16:32:00,78.6,57.9,29.68,ENE,68,13.0,20.0,49,0.00,,,0.00,meteohub,2013-03-21 21:32:00,
2013-03-21 16:37:00,78.6,57.9,29.68,SE,135,9.0,18.0,49,0.00,,,0.00,meteohub,2013-03-21 21:37:00,
2013-03-21 16:42:00,79.2,57.2,29.68,SE,135,12.0,21.0,47,0.00,,,0.00,meteohub,2013-03-21 21:42:00,
2013-03-21 16:47:00,79.7,57.0,29.68,East,90,21.0,21.0,46,0.00,,,0.00,meteohub,2013-03-21 21:47:00,
2013-03-21 16:52:00,79.3,57.9,29.68,NE,45,15.0,21.0,48,0.00,,,0.00,meteohub,2013-03-21 21:52:00,
2013-03-21 16:57:00,79.0,57.6,29.68,East,90,17.0,21.0,48,0.00,,,0.00,meteohub,2013-03-21 21:57:00,
2013-03-21 17:02:00,77.5,57.9,29.68,NNE,23,15.0,21.0,51,0.00,,,0.00,meteohub,2013-03-21 22:02:00,
2013-03-21 17:07:00,77.2,57.7,29.68,NE,45,16.0,18.0,51,0.00,,,0.00,meteohub,2013-03-21 22:07:00,
2013-03-21 17:13:00,77.5,57.9,29.67,East,90,12.0,18.0,51,0.00,,,0.00,meteohub,2013-03-21 22:13:00,
2013-03-21 17:18:00,77.2,57.7,29.66,NE,45,8.0,18.0,51,0.00,,,0.00,meteohub,2013-03-21 22:18:00,
2013-03-21 17:23:00,76.3,58.5,29.65,NE,45,11.0,17.0,54,0.00,,,0.00,meteohub,2013-03-21 22:23:00,
2013-03-21 17:28:00,75.7,57.9,29.65,East,90,7.0,17.0,54,0.00,,,0.00,meteohub,2013-03-21 22:28:00,
2013-03-21 17:33:00,75.4,58.1,29.65,East,90,13.0,17.0,55,0.00,,,0.00,meteohub,2013-03-21 22:33:00,
2013-03-21 17:38:00,75.6,58.3,29.66,NE,45,13.0,20.0,55,0.00,,,0.00,meteohub,2013-03-21 22:38:00,
2013-03-21 17:43:00,75.9,58.1,29.65,East,90,15.0,20.0,54,0.00,,,0.00,meteohub,2013-03-21 22:43:00,
2013-03-21 17:48:00,76.3,58.5,29.66,East,90,18.0,20.0,54,0.00,,,0.00,meteohub,2013-03-21 22:48:00,
2013-03-21 17:53:00,77.2,58.3,29.66,SE,135,11.0,18.0,52,0.00,,,0.00,meteohub,2013-03-21 22:53:00,
2013-03-21 17:58:00,75.7,57.9,29.65,East,90,11.0,18.0,54,0.00,,,0.00,meteohub,2013-03-21 22:58:00,
2013-03-21 18:03:00,76.3,58.5,29.66,East,90,11.0,19.0,54,0.00,,,0.00,meteohub,2013-03-21 23:03:00,
2013-03-21 18:08:00,76.8,59.0,29.65,SE,135,10.0,19.0,54,0.00,,,0.00,meteohub,2013-03-21 23:08:00,
2013-03-21 18:13:00,77.4,58.8,29.65,East,90,17.0,19.0,53,0.00,,,0.00,meteohub,2013-03-21 23:13:00,
2013-03-21 18:19:00,76.5,58.6,29.65,NE,45,17.0,17.0,54,0.00,,,0.00,meteohub,2013-03-21 23:19:00,
2013-03-21 18:24:00,75.9,58.1,29.65,SE,135,12.0,17.0,54,0.00,,,0.00,meteohub,2013-03-21 23:24:00,
2013-03-21 18:29:00,75.7,58.5,29.66,NE,45,11.0,17.0,55,0.00,,,0.00,meteohub,2013-03-21 23:29:00,
2013-03-21 18:34:00,75.0,58.3,29.66,East,90,11.0,17.0,56,0.00,,,0.00,meteohub,2013-03-21 23:34:00,
2013-03-21 18:39:00,75.0,58.8,29.66,East,90,10.0,17.0,57,0.00,,,0.00,meteohub,2013-03-21 23:39:00,
2013-03-21 18:44:00,74.8,58.6,29.65,East,90,9.0,17.0,57,0.00,,,0.00,meteohub,2013-03-21 23:44:00,
2013-03-21 18:49:00,74.7,58.5,29.66,ENE,68,15.0,17.0,57,0.00,,,0.00,meteohub,2013-03-21 23:49:00,
2013-03-21 18:54:00,74.5,58.3,29.66,SE,135,14.0,15.0,57,0.00,,,0.00,meteohub,2013-03-21 23:54:00,
2013-03-21 18:59:00,74.3,58.1,29.66,NE,45,12.0,15.0,57,0.00,,,0.00,meteohub,2013-03-21 23:59:00,
2013-03-21 19:04:00,74.3,58.1,29.66,NE,45,12.0,15.0,57,0.00,,,0.00,meteohub,2013-03-22 00:04:00,
2013-03-21 19:09:00,73.8,58.1,29.67,NE,45,8.0,15.0,58,0.00,,,0.00,meteohub,2013-03-22 00:09:00,
2013-03-21 19:14:00,73.4,58.3,29.67,East,90,10.0,13.0,59,0.00,,,0.00,meteohub,2013-03-22 00:14:00,
2013-03-21 19:20:00,73.4,58.3,29.67,NE,45,8.0,12.0,59,0.00,,,0.00,meteohub,2013-03-22 00:20:00,
2013-03-21 19:25:00,73.0,58.8,29.67,NE,45,9.0,15.0,61,0.00,,,0.00,meteohub,2013-03-22 00:25:00,
2013-03-21 19:30:00,72.7,58.5,29.67,East,90,11.0,15.0,61,0.00,,,0.00,meteohub,2013-03-22 00:30:00,
2013-03-21 19:35:00,72.5,58.3,29.67,East,90,11.0,15.0,61,0.00,,,0.00,meteohub,2013-03-22 00:35:00,
2013-03-21 19:40:00,72.1,57.9,29.67,East,90,7.0,12.0,61,0.00,,,0.00,meteohub,2013-03-22 00:40:00,
2013-03-21 19:45:00,72.0,58.3,29.67,NE,45,6.0,12.0,62,0.00,,,0.00,meteohub,2013-03-22 00:45:00,
2013-03-21 19:50:00,71.6,57.9,29.67,NE,45,10.0,12.0,62,0.00,,,0.00,meteohub,2013-03-22 00:50:00,
2013-03-21 19:55:00,71.4,58.6,29.67,East,90,8.0,12.0,64,0.00,,,0.00,meteohub,2013-03-22 00:55:00,
2013-03-21 20:00:00,71.2,58.5,29.67,East,90,6.0,10.0,64,0.00,,,0.00,meteohub,2013-03-22 01:00:00,
2013-03-21 20:05:00,71.1,58.3,29.67,SE,135,9.0,13.0,64,0.00,,,0.00,meteohub,2013-03-22 01:05:00,
2013-03-21 20:10:00,70.9,58.5,29.67,East,90,3.0,13.0,65,0.00,,,0.00,meteohub,2013-03-22 01:10:00,
2013-03-21 20:15:00,70.5,58.1,29.67,East,90,5.0,9.0,65,0.00,,,0.00,meteohub,2013-03-22 01:15:00,
2013-03-21 20:20:00,70.5,58.1,29.67,East,90,4.0,9.0,65,0.00,,,0.00,meteohub,2013-03-22 01:20:00,
2013-03-21 20:25:00,70.3,58.5,29.67,NE,45,4.0,8.0,66,0.00,,,0.00,meteohub,2013-03-22 01:25:00,
2013-03-21 20:30:00,70.2,58.3,29.68,NE,45,4.0,8.0,66,0.00,,,0.00,meteohub,2013-03-22 01:30:00,
2013-03-21 20:35:00,70.0,58.5,29.67,ENE,68,5.0,6.0,67,0.00,,,0.00,meteohub,2013-03-22 01:35:00,
2013-03-21 20:40:00,69.8,58.3,29.68,NE,45,2.0,6.0,67,0.00,,,0.00,meteohub,2013-03-22 01:40:00,
2013-03-21 20:45:00,69.4,58.8,29.68,NNE,23,3.0,6.0,69,0.00,,,0.00,meteohub,2013-03-22 01:45:00,
2013-03-21 20:50:00,69.1,58.5,29.68,NE,45,3.0,5.0,69,0.00,,,0.00,meteohub,2013-03-22 01:50:00,
2013-03-21 20:55:00,68.7,58.5,29.68,East,90,2.0,4.0,70,0.00,,,0.00,meteohub,2013-03-22 01:55:00,
2013-03-21 21:01:00,68.5,58.3,29.68,NE,45,2.0,4.0,70,0.00,,,0.00,meteohub,2013-03-22 02:01:00,
2013-03-21 21:06:00,68.5,58.3,29.68,NE,45,4.0,4.0,70,0.00,,,0.00,meteohub,2013-03-22 02:06:00,
2013-03-21 21:11:00,68.2,58.8,29.68,South,180,4.0,4.0,72,0.00,,,0.00,meteohub,2013-03-22 02:11:00,
2013-03-21 21:16:00,68.0,59.0,29.68,North,0,4.0,4.0,73,0.00,,,0.00,meteohub,2013-03-22 02:16:00,
2013-03-21 21:21:00,68.0,59.0,29.68,NE,45,4.0,4.0,73,0.00,,,0.00,meteohub,2013-03-22 02:21:00,
2013-03-21 21:26:00,67.6,59.0,29.68,NE,45,2.0,4.0,74,0.00,,,0.00,meteohub,2013-03-22 02:26:00,
2013-03-21 21:31:00,67.6,59.0,29.68,SE,135,2.0,4.0,74,0.00,,,0.00,meteohub,2013-03-22 02:31:00,
2013-03-21 21:36:00,67.3,59.0,29.68,NE,45,3.0,4.0,75,0.00,,,0.00,meteohub,2013-03-22 02:36:00,
2013-03-21 21:42:00,67.1,58.8,29.68,North,0,3.0,4.0,75,0.00,,,0.00,meteohub,2013-03-22 02:42:00,
2013-03-21 21:47:00,66.9,58.8,29.69,NE,45,4.0,4.0,75,0.00,,,0.00,meteohub,2013-03-22 02:47:00,
2013-03-21 21:52:00,66.6,58.8,29.69,NE,45,2.0,4.0,76,0.00,,,0.00,meteohub,2013-03-22 02:52:00,
2013-03-21 21:57:00,66.2,58.5,29.68,ENE,68,2.0,4.0,76,0.00,,,0.00,meteohub,2013-03-22 02:57:00,
2013-03-21 22:02:00,66.2,58.8,29.68,North,0,3.0,5.0,77,0.00,,,0.00,meteohub,2013-03-22 03:02:00,
2013-03-21 22:07:00,66.0,59.0,29.68,NE,45,3.0,5.0,78,0.00,,,0.00,meteohub,2013-03-22 03:07:00,
2013-03-21 22:12:00,66.0,59.0,29.69,East,90,4.0,5.0,78,0.00,,,0.00,meteohub,2013-03-22 03:12:00,
2013-03-21 22:17:00,65.8,59.2,29.69,NE,45,2.0,4.0,79,0.00,,,0.00,meteohub,2013-03-22 03:17:00,
2013-03-21 22:22:00,65.8,59.2,29.69,ENE,68,2.0,4.0,79,0.00,,,0.00,meteohub,2013-03-22 03:22:00,
2013-03-21 22:27:00,66.0,59.4,29.69,NE,45,4.0,4.0,79,0.00,,,0.00,meteohub,2013-03-22 03:27:00,
2013-03-21 22:32:00,66.2,59.2,29.69,North,0,5.0,6.0,78,0.00,,,0.00,meteohub,2013-03-22 03:32:00,
2013-03-21 22:37:00,66.2,59.2,29.69,South,180,2.0,6.0,78,0.00,,,0.00,meteohub,2013-03-22 03:37:00,
2013-03-21 22:42:00,65.8,59.2,29.70,North,0,2.0,6.0,79,0.00,,,0.00,meteohub,2013-03-22 03:42:00,
2013-03-21 22:47:00,65.7,59.4,29.69,NE,45,2.0,5.0,80,0.00,,,0.00,meteohub,2013-03-22 03:47:00,
2013-03-21 22:52:00,65.5,59.2,29.69,NE,45,2.0,4.0,80,0.00,,,0.00,meteohub,2013-03-22 03:52:00,
2013-03-21 22:57:00,65.3,59.0,29.70,NE,45,2.0,3.0,80,0.00,,,0.00,meteohub,2013-03-22 03:57:00,
2013-03-21 23:00:00,65.1,59.2,29.70,NE,45,3.0,3.0,81,0.00,,,0.00,meteohub,2013-03-22 04:00:00,
2013-03-21 23:01:00,65.1,59.2,29.70,NE,45,3.0,3.0,81,0.00,,,0.00,meteohub,2013-03-22 04:01:00,
2013-03-21 23:06:00,65.1,59.2,29.70,NE,45,3.0,4.0,81,0.00,,,0.00,meteohub,2013-03-22 04:06:00,
2013-03-21 23:12:00,64.9,59.4,29.70,NE,45,2.0,4.0,82,0.00,,,0.00,meteohub,2013-03-22 04:12:00,
2013-03-21 23:17:00,64.9,59.7,29.69,NE,45,4.0,4.0,83,0.00,,,0.00,meteohub,2013-03-22 04:17:00,
2013-03-21 23:22:00,65.1,59.9,29.69,NE,45,4.0,5.0,83,0.00,,,0.00,meteohub,2013-03-22 04:22:00,
2013-03-21 23:27:00,65.1,59.9,29.70,NE,45,4.0,5.0,83,0.00,,,0.00,meteohub,2013-03-22 04:27:00,
2013-03-21 23:32:00,64.9,59.7,29.69,NE,45,4.0,5.0,83,0.00,,,0.00,meteohub,2013-03-22 04:32:00,
2013-03-21 23:37:00,64.9,59.9,29.69,NE,45,4.0,5.0,84,0.00,,,0.00,meteohub,2013-03-22 04:37:00,
2013-03-21 23:42:00,64.9,59.9,29.69,NE,45,5.0,5.0,84,0.00,,,0.00,meteohub,2013-03-22 04:42:00,
2013-03-21 23:47:00,64.9,59.9,29.69,NE,45,6.0,6.0,84,0.00,,,0.00,meteohub,2013-03-22 04:47:00,
2013-03-21 23:52:00,64.9,59.9,29.69,East,90,3.0,6.0,84,0.00,,,0.00,meteohub,2013-03-22 04:52:00,
2013-03-21 23:57:00,64.9,59.9,29.69,NE,45,4.0,6.0,84,0.00,,,0.00,meteohub,2013-03-22 04:57:00,